Shungnak AP, Shungnak, AK, AK

12:49 PM AKST on December 12, 2019 (GMT -0900)
Shungnak AP, Shungnak, AK

Weather History for PAGH - October, 2019

Change the Weather History Date:

Thursday, October 31, 2019

  Actual Average (PAFM) Record (PAFM)
Temperature  
Mean Temperature 20 °F -  
Max Temperature 25 °F 16 °F 39 °F (2002)
Min Temperature 14 °F 7 °F -13 °F (1985)
Degree Days  
Heating Degree Days 44    
Moisture  
Dew Point 19 °F    
Average Humidity 88    
Maximum Humidity 92    
Minimum Humidity 81    
Precipitation  
Precipitation 0.00 in - - ()
Sea Level Pressure  
Sea Level Pressure 30.17 in    
Wind  
Wind Speed 5 mph (ESE)    
Max Wind Speed 10 mph    
Max Gust Speed -    
Visibility 10 miles    
Events Snow    
Averages and records for this station are not official NWS values.
T = Trace of Precipitation, MM = Missing Value Source: NWS Daily Summary

Daily Weather History Graph

Daily Weather History Graph

Search for Another Location

Airport or City:

Astronomy

Oct. 31, 2019 Rise Set
Actual Time 10:26 AM AKDT 5:56 PM AKDT
Civil Twilight 9:26 AM AKDT 6:56 PM AKDT
Nautical Twilight 8:22 AM AKDT 8:00 PM AKDT
Astronomical Twilight 7:21 AM AKDT 9:01 PM AKDT
Moon 4:54 PM AKDT (10/31) 6:33 PM AKDT (10/31)
Length of Visible Light 9h 30m
Length of Day
7h 29m
Waxing Crescent, 17% of the Moon is Illuminated
Oct 31
Waxing Crescent
Nov 4
First Quarter
Nov 12
Full
Nov 19
Last Quarter
Nov 26
New

Hourly Weather History & Observations

Time (AKDT) Temp. Windchill Dew Point Humidity Pressure Visibility Wind Dir Wind Speed Gust Speed Precip Events Conditions
12:56 AM 23.0 °F - 18.0 °F 81% 30.20 in 10.0 mi Calm Calm - N/A   Overcast
1:56 AM 23.0 °F - 19.0 °F 85% 30.21 in 10.0 mi Calm Calm - N/A   Overcast
2:56 AM 23.0 °F 17.0 °F 19.9 °F 88% 30.21 in 9.0 mi East 4.6 mph - 0.00 in Snow Light Snow
3:56 AM 23.0 °F 15.8 °F 19.0 °F 85% 30.21 in 9.0 mi East 5.8 mph - 0.00 in Snow Light Snow
4:56 AM 21.9 °F 14.5 °F 19.0 °F 89% 30.21 in 9.0 mi ESE 5.8 mph - 0.00 in Snow Light Snow
5:56 AM 21.9 °F 12.5 °F 19.9 °F 92% 30.20 in 9.0 mi ESE 8.1 mph - 0.00 in   Overcast
6:56 AM 21.9 °F 13.4 °F 19.9 °F 92% 30.20 in 10.0 mi ESE 6.9 mph - 0.00 in   Overcast
7:56 AM 21.9 °F 13.4 °F 19.9 °F 92% 30.19 in 10.0 mi East 6.9 mph - N/A   Overcast
9:56 AM 23.0 °F 13.9 °F 19.9 °F 88% 30.19 in 10.0 mi SE 8.1 mph - N/A   Overcast
10:56 AM 23.0 °F 13.9 °F 19.9 °F 88% 30.19 in 10.0 mi ESE 8.1 mph - N/A   Overcast
11:56 AM 23.0 °F 13.9 °F 19.9 °F 88% 30.19 in 10.0 mi ESE 8.1 mph - N/A   Overcast
12:56 PM 24.1 °F 16.0 °F 19.9 °F 84% 30.19 in 10.0 mi ESE 6.9 mph - N/A   Overcast
1:56 PM 25.0 °F 17.1 °F 21.0 °F 85% 30.18 in 10.0 mi ESE 6.9 mph - N/A   Overcast
2:56 PM 25.0 °F 18.1 °F 21.0 °F 85% 30.17 in 10.0 mi SE 5.8 mph - N/A   Overcast
3:56 PM 25.0 °F 17.1 °F 21.0 °F 85% 30.16 in 10.0 mi ESE 6.9 mph - N/A   Overcast
4:56 PM 24.1 °F 16.0 °F 21.0 °F 88% 30.14 in 10.0 mi SSE 6.9 mph - N/A   Overcast
5:56 PM 23.0 °F 14.7 °F 19.9 °F 88% 30.13 in 10.0 mi SE 6.9 mph - N/A   Overcast
6:56 PM 21.9 °F 14.5 °F 19.0 °F 89% 30.13 in 10.0 mi East 5.8 mph - N/A   Overcast
7:56 PM 21.9 °F 13.4 °F 19.0 °F 89% 30.13 in 10.0 mi ESE 6.9 mph - N/A   Overcast
8:56 PM 19.9 °F 10.1 °F 17.1 °F 89% 30.13 in 10.0 mi ESE 8.1 mph - N/A   Overcast
9:56 PM 19.0 °F 8.2 °F 16.0 °F 88% 30.12 in 10.0 mi ESE 9.2 mph - N/A   Overcast
10:56 PM 16.0 °F 3.6 °F 12.9 °F 88% 30.12 in 10.0 mi SE 10.4 mph - N/A   Mostly Cloudy
11:56 PM 14.0 °F 2.0 °F 10.9 °F 88% 30.12 in 10.0 mi ESE 9.2 mph - N/A   Clear